{"data":{"norad_id":64892,"epoch":"2026-09-19T22:25:05.382048Z","epoch_age_seconds":63154,"freshness":"FRESH","line1":"1 64892U 25155S   26262.93409007  .00011702  00000+0  33787-3 0  9998","line2":"2 64892  97.4661 233.4394 0005296 179.3553 180.7698 15.35818223 95356","mean_motion":15.35818223,"eccentricity":0.0005296,"inclination_deg":97.4661,"raan_deg":233.4394,"arg_perigee_deg":179.3553,"mean_anomaly_deg":180.7698,"bstar":0.00033787,"rev_number":9535,"period_min":93.761096100759,"perigee_km":454.87054834981,"apogee_km":462.11190496749,"semimajor_km":6836.6282266587,"source":"CELESTRAK","updated_at":"2026-09-20T09:00:45.267227Z"}}